1536962400.02,64495,18.25,74280.0,4.65,4.37,4.31,0,*76
1536962401.23,64496,18.25,74278.5,4.65,4.31,4.37,0,*75
1536962402.43,64497,18.25,74280.8,4.65,4.27,4.31,0,*75
1536962403.61,64498,18.25,74276.5,4.65,4.19,4.37,0,*71
1536962404.78,64499,18.25,74282.5,4.65,4.27,4.19,0,*71
1536962405.98,64500,18.25,74276.5,4.65,4.31,4.27,0,*7A
1536962407.19,64501,18.25,74282.0,4.67,4.33,4.33,0,*7E
1536962408.4,64502,18.25,74280.5,4.67,4.33,4.41,0,*78
1536962409.58,64503,18.25,74286.8,4.69,4.37,4.37,0,*72
1536962410.77,64504,18.25,74282.0,4.69,4.37,4.45,0,*70
1536962411.95,64505,18.25,74286.3,4.69,4.33,4.37,0,*70
1536962413.21,64506,18.25,74284.5,4.67,4.31,4.31,0,*79
1536962414.38,64507,18.25,74282.8,4.69,4.33,4.27,0,*73
1536962415.56,64508,18.25,74286.0,4.69,4.27,4.23,0,*7D
1536962416.74,64509,18.25,74288.0,4.69,4.27,4.27,0,*78
1536962417.91,64510,18.25,74290.0,4.69,4.23,4.23,0,*70
1536962419.09,64511,18.25,74288.0,4.69,4.27,4.23,0,*75
1536962420.29,64512,18.25,74286.0,4.67,4.23,4.19,0,*75
1536962421.46,64513,18.25,74286.8,4.69,4.23,4.23,0,*73
1536962422.64,64514,18.25,74286.3,4.69,4.15,4.23,0,*71
1536962423.84,64515,18.25,74292.0,4.67,4.19,4.11,0,*73
1536962425.02,64516,18.25,74288.3,4.69,4.23,4.15,0,*73
1536962426.19,64517,18.25,74294.8,4.69,4.23,4.23,0,*77
1536962427.4,64518,18.25,74290.8,4.67,4.07,4.11,0,*71
1536962428.59,64519,18.25,74290.0,4.67,4.19,4.11,0,*7F
1536962429.77,64520,18.25,74292.8,4.69,4.15,4.15,0,*73
1536962430.95,64521,18.25,74292.5,4.69,4.11,4.15,0,*76
1536962432.13,64522,18.25,74294.3,4.69,4.15,4.15,0,*71
1536962433.3,64523,18.25,74290.5,4.69,4.15,4.11,0,*74
1536962434.48,64524,18.25,74290.8,4.69,4.15,4.15,0,*77
1536962435.66,64525,18.25,74290.8,4.69,4.23,4.23,0,*76
1536962436.83,64526,18.25,74292.5,4.69,4.23,4.15,0,*70
1536962438.01,64527,18.25,74294.8,4.69,4.15,4.15,0,*74
1536962439.19,64528,18.25,74294.0,4.69,4.11,4.15,0,*7F
1536962440.36,64529,18.25,74288.0,4.69,4.15,4.15,0,*7A
1536962441.54,64530,18.25,74286.0,4.73,4.27,4.19,0,*74
1536962442.71,64531,18.25,74286.8,4.69,4.23,4.23,0,*73
1536962443.89,64532,18.25,74286.0,4.73,4.19,4.19,0,*7B
1536962445.06,64533,18.25,74288.5,4.73,4.15,4.19,0,*76
1536962446.23,64534,18.25,74288.5,4.73,4.19,4.19,0,*7D
1536962447.46,64535,18.25,74290.5,4.73,4.31,4.31,0,*7C
1536962448.69,64536,18.25,74290.0,4.73,4.31,4.31,0,*7F
1536962449.87,64537,18.25,74286.8,4.73,4.27,4.27,0,*7E
1536962451.07,64538,18.25,74288.8,4.73,4.19,4.31,0,*7B
1536962452.25,64539,18.25,74290.8,4.73,4.27,4.19,0,*7D
1536962453.42,64540,18.25,74292.3,4.73,4.19,4.15,0,*72
1536962454.59,64541,18.25,74288.8,4.73,4.27,4.19,0,*72
1536962455.77,64542,18.25,74292.3,4.73,4.15,4.15,0,*7C
1536962456.94,64543,18.25,74286.5,4.73,4.15,4.19,0,*71
1536962458.12,64544,18.25,74284.8,4.73,4.19,4.19,0,*7A
1536962459.29,64545,18.25,74294.5,4.73,4.19,4.15,0,*77
1536962460.49,64546,18.25,74292.3,4.73,4.15,4.05,0,*79
1536962461.7,64547,18.25,74294.5,4.73,4.05,4.07,0,*7B
1536962462.89,64548,18.25,74296.0,4.73,4.07,4.07,0,*76
1536962464.09,64549,18.25,74292.0,4.73,4.07,4.05,0,*75
1536962465.27,64550,18.25,74288.5,4.73,4.07,4.15,0,*7C
1536962466.45,64551,18.25,74290.0,4.73,4.07,4.07,0,*7E
1536962467.63,64552,18.25,74296.3,4.73,4.07,4.07,0,*7D
1536962468.81,64553,18.25,74294.8,4.73,4.07,4.07,0,*7C
1536962470.05,64554,18.25,74298.8,4.73,4.05,4.05,0,*7B
1536962471.27,64555,18.25,74292.0,4.69,4.01,4.01,0,*71
1536962472.5,64556,18.25,74292.0,4.73,4.05,4.05,0,*79
1536962473.73,64557,18.25,74292.5,4.73,4.05,4.05,0,*78
1536962474.95,64558,18.25,74296.0,4.69,4.01,4.01,0,*7C
1536962476.18,64559,18.25,74288.3,4.69,4.01,4.01,0,*7D
1536962477.4,64560,18.25,74294.8,4.69,4.05,4.01,0,*73
1536962478.63,64561,18.25,74292.0,4.69,4.05,4.01,0,*72
1536962479.85,64562,18.25,74296.0,4.69,4.01,4.01,0,*75
1536962481.08,64563,18.25,74296.5,4.69,4.01,4.01,0,*74
1536962482.3,64564,18.25,74294.5,4.69,4.01,4.01,0,*73
1536962483.52,64565,18.25,74288.8,4.69,4.01,4.01,0,*72
1536962484.74,64566,18.25,74298.3,4.69,3.97,3.97,0,*71
1536962485.95,64567,18.25,74298.0,4.69,3.97,3.89,0,*7F
1536962487.16,64568,18.25,74296.5,4.67,3.93,3.93,0,*71
1536962488.38,64569,18.25,74292.3,4.69,4.05,3.97,0,*72
1536962489.61,64570,18.25,74292.0,4.69,3.97,4.01,0,*7E
1536962490.86,64571,18.25,74290.8,4.67,3.97,3.97,0,*79
1536962492.1,64572,18.25,74290.5,4.67,4.01,4.01,0,*7A
1536962493.33,64573,18.25,74290.8,4.69,4.01,4.01,0,*75
1536962494.55,64574,18.25,74290.3,4.69,4.01,4.01,0,*72
1536962495.77,64575,18.25,74284.0,4.69,4.01,4.01,0,*73
1536962496.99,64576,18.25,74286.8,4.69,4.01,4.01,0,*70
1536962498.22,64577,18.25,74286.5,4.69,4.05,4.01,0,*75
1536962499.45,64578,18.25,74284.8,4.69,4.05,4.05,0,*7E
1536962500.7,64579,18.25,74288.8,4.67,4.01,4.01,0,*71
1536962501.91,64580,18.25,74286.0,4.67,4.07,4.07,0,*77
1536962503.08,64581,18.25,74286.8,4.69,4.11,4.11,0,*78
1536962504.26,64582,18.25,74286.5,4.69,4.11,4.15,0,*7F
1536962505.47,64583,18.25,74282.0,4.67,4.07,4.07,0,*74
1536962506.65,64584,18.25,74282.0,4.69,4.11,4.15,0,*79
1536962507.83,64585,18.25,74280.8,4.69,4.15,4.15,0,*7C
1536962509.01,64586,18.25,74280.3,4.69,4.15,4.15,0,*7F
1536962510.18,64587,18.25,74280.0,4.69,4.23,4.27,0,*7A
1536962511.35,64588,18.25,74278.8,4.69,4.23,4.23,0,*71
1536962512.53,64589,18.25,74280.0,4.73,4.19,4.15,0,*77
1536962513.7,64590,18.25,74280.8,4.73,4.19,4.19,0,*73
1536962514.88,64591,18.25,74282.5,4.73,4.15,4.15,0,*72
1536962516.06,64592,18.25,74286.3,4.73,4.07,4.07,0,*71
1536962517.26,64593,18.25,74288.0,4.73,4.07,4.05,0,*72
1536962518.49,64594,18.25,74292.0,4.69,4.01,4.05,0,*78
1536962519.71,64595,18.25,74292.0,4.69,4.01,4.01,0,*7D
1536962520.92,64596,18.25,74290.0,4.73,4.05,4.07,0,*77
1536962522.15,64597,18.25,74284.0,4.73,4.05,4.05,0,*74
1536962523.37,64598,18.25,74284.3,4.69,4.01,4.01,0,*70
1536962524.62,64599,18.25,74282.0,4.67,4.01,4.01,0,*7F
1536962525.84,64600,18.25,74284.3,4.69,4.01,4.01,0,*72
1536962527.06,64601,18.25,74284.0,4.69,3.97,4.01,0,*7B
1536962528.29,64602,18.25,74288.0,4.69,3.97,4.01,0,*78
1536962529.5,64603,18.25,74288.8,4.67,3.93,3.93,0,*7F
1536962530.68,64604,18.25,74294.0,4.69,3.89,3.89,0,*76
1536962531.86,64605,18.19,74290.8,4.69,3.89,3.85,0,*7B
1536962533.06,64606,18.19,74290.8,4.67,3.85,3.81,0,*7E
1536962534.24,64607,18.25,74288.8,4.69,3.89,3.85,0,*79
1536962535.42,64608,18.25,74292.8,4.69,3.89,3.85,0,*76
1536962536.68,64609,18.25,74290.5,4.67,3.75,3.75,0,*75
1536962537.91,64610,18.25,74290.5,4.69,3.79,3.79,0,*73
1536962539.14,64611,18.25,74290.5,4.69,3.79,3.75,0,*7E
1536962540.4,64612,18.25,74294.0,4.67,3.75,3.75,0,*7F
1536962541.63,64613,18.25,74292.0,4.67,3.75,3.63,0,*79
1536962542.87,64614,18.25,74290.8,4.67,3.75,3.81,0,*72
1536962544.12,64615,18.25,74292.0,4.67,3.71,3.71,0,*78
1536962545.35,64616,18.25,74288.8,4.73,3.79,3.79,0,*7E
1536962546.61,64617,18.25,74292.0,4.67,3.71,3.71,0,*7A
1536962547.86,64618,18.25,74296.0,4.67,3.71,3.71,0,*75
1536962549.12,64619,18.25,74294.5,4.63,3.67,3.67,0,*70
1536962550.32,64620,18.25,74292.5,4.65,3.67,3.59,0,*71
1536962551.49,64621,18.25,74286.3,4.65,3.59,3.55,0,*71
1536962552.66,64622,18.25,74288.3,4.65,3.59,3.59,0,*7E
1536962553.92,64623,18.25,74284.8,4.63,3.71,3.67,0,*7E
1536962555.17,64624,18.25,74294.3,4.63,3.67,3.79,0,*71
1536962556.43,64625,18.25,74288.3,4.63,3.71,3.79,0,*77
1536962557.65,64626,18.25,74288.0,4.65,3.71,3.79,0,*72
1536962558.91,64627,18.25,74290.3,4.63,3.71,3.71,0,*7D
1536962560.14,64628,18.25,74294.3,4.65,3.71,3.67,0,*73
1536962561.37,64629,18.25,74298.5,4.63,3.71,3.59,0,*79
1536962562.62,64630,18.25,74298.0,4.63,3.67,3.67,0,*7B
1536962563.88,64631,18.25,74294.3,4.63,3.71,3.71,0,*7A
1536962565.14,64632,18.25,74294.8,4.63,3.71,3.71,0,*79
1536962566.4,64633,18.25,74292.8,4.63,3.79,3.71,0,*70
1536962567.65,64634,18.25,74294.3,4.63,3.71,3.79,0,*77
1536962568.88,64635,18.25,74294.0,4.65,3.71,3.71,0,*78
1536962570.13,64636,18.25,74292.3,4.63,3.71,3.71,0,*7D
1536962571.39,64637,18.25,74292.3,4.63,3.71,3.71,0,*7C
1536962572.62,64638,18.25,74294.3,4.61,3.67,3.79,0,*7E
1536962573.86,64639,18.25,74292.3,4.61,3.67,3.75,0,*73
1536962575.09,64640,18.19,74288.0,4.57,3.75,3.67,0,*78
1536962576.33,64641,18.25,74288.3,4.61,3.67,3.75,0,*7C
1536962577.56,64642,18.25,74294.0,4.57,3.67,3.75,0,*7A
1536962578.8,64643,18.19,74288.8,4.61,3.67,3.75,0,*7E
1536962580.03,64644,18.25,74292.5,4.61,3.75,3.67,0,*79
1536962581.27,64645,18.25,74290.8,4.61,3.67,3.67,0,*7B
1536962582.5,64646,18.25,74300.0,4.57,3.67,3.67,0,*7D
1536962583.73,64647,18.25,74300.0,4.61,3.67,3.67,0,*79
1536962584.9,64648,18.25,74296.5,4.57,3.63,3.63,0,*73
1536962586.14,64649,18.25,74290.0,4.61,3.75,3.75,0,*77
1536962587.37,64650,18.19,74284.5,4.61,3.79,3.75,0,*73
1536962588.57,64651,18.25,74286.8,4.57,3.79,3.85,0,*78
1536962589.77,64652,18.25,74288.3,4.57,3.79,3.85,0,*7B
1536962591.0,64653,18.19,74282.8,4.57,3.79,3.75,0,*75
1536962592.2,64654,18.25,74282.0,4.57,3.63,3.75,0,*79
1536962593.41,64655,18.25,74272.0,4.57,3.63,3.75,0,*78
1536962594.64,64656,18.25,74272.8,4.61,3.79,3.75,0,*75
1536962595.87,64657,18.19,74272.8,4.57,3.79,3.75,0,*71
1536962597.1,64658,18.25,74282.8,4.61,3.79,3.79,0,*77
1536962598.3,64659,18.25,74282.8,4.57,3.79,3.85,0,*70
1536962599.48,64660,18.25,74282.0,4.61,3.85,3.85,0,*7C
1536962600.68,64661,18.19,74276.3,4.61,3.79,3.85,0,*7E
1536962601.86,64662,18.25,74280.5,4.61,3.85,3.85,0,*7E
1536962603.06,64663,18.25,74280.5,4.57,3.85,3.79,0,*79
1536962604.26,64664,18.25,74284.0,4.57,3.85,3.79,0,*7E
1536962605.43,64665,18.25,74286.0,4.57,3.85,3.85,0,*7C
1536962606.63,64666,18.25,74280.3,4.61,3.85,3.79,0,*79
1536962607.81,64667,18.25,74282.5,4.61,3.85,3.85,0,*7B
1536962609.01,64668,18.25,74282.3,4.61,3.85,3.79,0,*77
1536962610.19,64669,18.25,74286.5,4.61,3.85,3.85,0,*75
1536962611.36,64670,18.25,74286.8,4.57,3.85,3.85,0,*78
1536962612.54,64671,18.25,74284.3,4.61,3.85,3.85,0,*7C
1536962613.71,64672,18.25,74286.3,4.57,3.85,3.85,0,*7A
1536962614.88,64673,18.25,74286.3,4.57,3.85,3.85,0,*7B
1536962616.06,64674,18.25,74286.0,4.61,3.85,3.89,0,*75
1536962617.25,64675,18.25,74286.5,4.61,3.85,3.89,0,*74
1536962618.42,64676,18.25,74290.0,4.57,3.85,3.89,0,*72
1536962619.61,64677,18.25,74284.0,4.61,3.85,3.89,0,*76
1536962620.79,64678,18.25,74286.0,4.61,3.85,3.89,0,*79
1536962622.0,64679,18.25,74286.8,4.63,3.89,3.93,0,*7D
1536962623.17,64680,18.19,74286.3,4.57,3.85,3.85,0,*77
1536962624.35,64681,18.25,74288.0,4.61,3.85,3.85,0,*73
1536962625.52,64682,18.25,74284.5,4.57,3.85,3.85,0,*75
1536962626.69,64683,18.25,74284.8,4.57,3.85,3.85,0,*74
1536962627.92,64684,18.19,74286.0,4.61,3.79,3.79,0,*76
1536962629.13,64685,18.25,74288.3,4.61,3.79,3.85,0,*74
1536962630.35,64686,18.25,74290.0,4.57,3.79,3.79,0,*71
1536962631.55,64687,18.25,74290.0,4.57,3.85,3.79,0,*73
1536962632.75,64688,18.19,74284.5,4.57,3.85,3.79,0,*7C
1536962633.98,64689,18.25,74290.5,4.57,3.79,3.75,0,*72
1536962635.22,64690,18.25,74290.5,4.61,3.75,3.75,0,*73
1536962636.45,64691,18.25,74288.0,4.57,3.67,3.75,0,*74
1536962637.68,64692,18.25,74290.0,4.61,3.79,3.67,0,*7E
1536962638.91,64693,18.25,74290.8,4.61,3.79,3.79,0,*70
1536962640.11,64694,18.25,74290.8,4.57,3.85,3.79,0,*71
1536962641.34,64695,18.25,74292.5,4.57,3.79,3.79,0,*73
1536962642.57,64696,18.19,74290.8,4.57,3.75,3.79,0,*7C
1536962643.8,64697,18.25,74292.5,4.57,3.75,3.75,0,*71
1536962645.04,64698,18.19,74290.3,4.57,3.75,3.79,0,*72
1536962646.27,64699,18.19,74298.3,4.61,3.75,3.67,0,*79
1536962647.5,64700,18.19,74296.5,4.57,3.79,3.75,0,*72
1536962648.73,64701,18.25,74296.5,4.57,3.75,3.75,0,*7F
1536962649.97,64702,18.25,74298.5,4.61,3.75,3.79,0,*75
1536962651.2,64703,18.25,74298.5,4.61,3.75,3.75,0,*78
1536962652.44,64704,18.19,74292.3,4.57,3.75,3.75,0,*7A
1536962653.61,64705,18.25,74294.5,4.57,3.85,3.85,0,*7B
1536962654.81,64706,18.25,74300.3,4.57,3.85,3.79,0,*7B
1536962656.01,64707,18.25,74296.3,4.57,3.79,3.85,0,*7A
1536962657.21,64708,18.19,74294.5,4.57,3.79,3.85,0,*75
1536962658.44,64709,18.25,74294.5,4.61,3.79,3.79,0,*72
1536962659.64,64710,18.25,74296.5,4.57,3.85,3.79,0,*7C
1536962660.84,64711,18.25,74296.0,4.61,3.85,3.79,0,*78
1536962662.07,64712,18.19,74294.0,4.57,3.79,3.79,0,*7D
1536962663.33,64713,18.19,74298.8,4.55,3.75,3.75,0,*7E
1536962664.56,64714,18.25,74300.5,4.55,3.71,3.81,0,*76
1536962665.82,64715,18.19,74296.3,4.55,3.75,3.75,0,*78
1536962667.02,64716,18.25,74302.5,4.57,3.85,3.79,0,*7A
1536962668.25,64717,18.25,74302.5,4.57,3.79,3.79,0,*78
1536962669.47,64718,18.25,74300.8,4.57,3.79,3.79,0,*77
1536962670.67,64719,18.25,74306.0,4.57,3.79,3.85,0,*75
1536962671.85,64720,18.25,74306.5,4.57,3.85,3.85,0,*7C
1536962673.05,64721,18.19,74304.3,4.57,3.85,3.79,0,*7E
1536962674.27,64722,18.19,74300.8,4.57,3.79,3.79,0,*7E
1536962675.5,64723,18.19,74298.8,4.57,3.79,3.79,0,*7F
1536962676.73,64724,18.25,74302.8,4.57,3.79,3.79,0,*78
1536962677.95,64725,18.19,74298.0,4.57,3.79,3.79,0,*79
1536962679.18,64726,18.25,74298.5,4.57,3.79,3.79,0,*7A
1536962680.41,64727,18.19,74294.5,4.57,3.75,3.75,0,*7B
1536962681.65,64728,18.19,74292.0,4.57,3.75,3.75,0,*74
1536962682.88,64729,18.25,74294.0,4.57,3.67,3.75,0,*76
1536962684.14,64730,18.25,74294.3,4.55,3.71,3.75,0,*7B
1536962685.39,64731,18.25,74294.0,4.55,3.75,3.75,0,*7E
1536962686.62,64732,18.25,74290.8,4.57,3.79,3.75,0,*73
1536962687.86,64733,18.25,74294.0,4.57,3.75,3.75,0,*7E
1536962689.09,64734,18.25,74292.8,4.57,3.75,3.75,0,*79
1536962690.29,64735,18.19,74294.3,4.55,3.63,3.63,0,*7A
1536962691.52,64736,18.19,74292.5,4.57,3.67,3.75,0,*78
1536962692.78,64737,18.19,74294.0,4.55,3.71,3.71,0,*78
1536962694.01,64738,18.19,74294.0,4.57,3.75,3.75,0,*75
1536962695.24,64739,18.19,74296.0,4.57,3.75,3.79,0,*78
1536962696.5,64740,18.19,74294.3,4.55,3.75,3.75,0,*78
1536962697.71,64741,18.19,74298.0,4.53,3.67,3.59,0,*72
1536962698.96,64742,18.25,74298.3,4.55,3.71,3.67,0,*7D
1536962700.22,64743,18.19,74294.5,4.55,3.71,3.71,0,*7B
1536962701.44,64744,18.25,74296.5,4.55,3.63,3.71,0,*7F
1536962702.62,64745,18.19,74296.0,4.53,3.63,3.63,0,*7B
1536962703.79,64746,18.25,74294.8,4.53,3.63,3.59,0,*71
1536962704.99,64747,18.25,74296.0,4.55,3.63,3.59,0,*76
1536962706.19,64748,18.19,74292.0,4.55,3.63,3.59,0,*79
1536962707.37,64749,18.25,74296.0,4.53,3.63,3.59,0,*7E
1536962708.57,64750,18.19,74292.0,4.55,3.63,3.59,0,*70
1536962709.76,64751,18.19,74294.3,4.55,3.63,3.63,0,*78
1536962711.0,64752,18.25,74294.0,4.53,3.67,3.67,0,*7D
1536962712.2,64753,18.19,74294.3,4.53,3.67,3.59,0,*71
1536962713.44,64754,18.19,74292.3,4.53,3.67,3.67,0,*7B
1536962714.64,64755,18.25,74298.0,4.53,3.67,3.59,0,*77
1536962715.9,64756,18.19,74290.0,4.55,3.71,3.71,0,*7F
1536962717.13,64757,18.19,74290.5,4.53,3.67,3.67,0,*78
1536962718.34,64758,18.19,74288.5,4.53,3.59,3.67,0,*7A
1536962719.57,64759,18.25,74294.0,4.53,3.67,3.67,0,*76
1536962720.8,64760,18.25,74294.0,4.53,3.67,3.67,0,*7C
1536962722.03,64761,18.19,74292.3,4.53,3.67,3.67,0,*7D
1536962723.27,64762,18.19,74292.8,4.53,3.67,3.67,0,*7E
1536962724.47,64763,18.19,74298.3,4.53,3.67,3.59,0,*72
1536962725.65,64764,18.19,74296.5,4.53,3.59,3.59,0,*78
1536962726.84,64765,18.19,74298.8,4.51,3.55,3.59,0,*77
1536962728.04,64766,18.25,74296.5,4.53,3.49,3.55,0,*77
1536962729.22,64767,18.19,74294.3,4.53,3.59,3.59,0,*7B
1536962730.42,64768,18.19,74294.5,4.53,3.59,3.67,0,*79
1536962731.65,64769,18.25,74294.3,4.53,3.67,3.67,0,*75
1536962732.83,64770,18.19,74294.0,4.53,3.59,3.59,0,*7D
1536962734.02,64771,18.19,74292.5,4.51,3.59,3.59,0,*7E
1536962735.22,64772,18.19,74292.5,4.51,3.55,3.55,0,*7D
1536962736.39,64773,18.19,74294.5,4.53,3.55,3.55,0,*7E
1536962737.56,64774,18.25,74292.3,4.53,3.59,3.59,0,*79
1536962738.78,64775,18.19,74288.3,4.51,3.59,3.67,0,*77
1536962740.04,64776,18.19,74292.8,4.51,3.67,3.67,0,*79
1536962741.26,64777,18.19,74292.0,4.51,3.59,3.67,0,*75
1536962742.45,64778,18.19,74294.0,4.51,3.59,3.55,0,*7B
1536962743.68,64779,18.19,74294.0,4.51,3.67,3.59,0,*7B
1536962744.88,64780,18.19,74294.0,4.51,3.59,3.59,0,*70
1536962746.1,64781,18.25,74298.3,4.51,3.59,3.67,0,*7C
1536962747.3,64782,18.19,74292.8,4.51,3.59,3.59,0,*72
1536962748.5,64783,18.19,74292.3,4.49,3.59,3.67,0,*77
1536962749.67,64784,18.19,74292.5,4.49,3.63,3.63,0,*7D
1536962750.84,64785,18.19,74294.5,4.49,3.55,3.55,0,*7C
1536962752.05,64786,18.19,74294.0,4.49,3.59,3.67,0,*72
1536962753.24,64787,18.19,74296.5,4.51,3.59,3.59,0,*77
1536962754.46,64788,18.19,74296.0,4.51,3.59,3.67,0,*75
1536962755.66,64789,18.25,74302.3,4.51,3.59,3.59,0,*79
1536962756.86,64790,18.19,74298.8,4.49,3.63,3.53,0,*7B
1536962758.03,64791,18.19,74296.3,4.49,3.63,3.55,0,*7C
1536962759.23,64792,18.19,74296.5,4.49,3.53,3.55,0,*7C
1536962760.4,64793,18.25,74298.8,4.49,3.63,3.63,0,*7B
1536962761.6,64794,18.19,74294.5,4.49,3.63,3.67,0,*78
1536962762.78,64795,18.19,74294.5,4.49,3.63,3.63,0,*7D
1536962764.03,64796,18.19,74292.5,4.51,3.67,3.67,0,*77
1536962765.21,64797,18.19,74296.3,4.49,3.55,3.63,0,*7A
1536962766.46,64798,18.25,74296.3,4.51,3.67,3.67,0,*79
1536962767.63,64799,18.25,74296.8,4.49,3.63,3.63,0,*71
1536962768.81,64800,18.19,74296.5,4.49,3.63,3.63,0,*7E
1536962769.98,64801,18.19,74296.3,4.49,3.55,3.63,0,*7A
1536962771.15,64802,18.19,74298.8,4.49,3.55,3.55,0,*7C
1536962772.32,64803,18.19,74300.0,4.49,3.55,3.55,0,*7D
1536962773.5,64804,18.19,74296.0,4.49,3.63,3.55,0,*7F
1536962774.7,64805,18.19,74292.8,4.49,3.67,3.63,0,*7F
1536962775.87,64806,18.19,74298.3,4.49,3.55,3.55,0,*78
1536962777.05,64807,18.19,74298.5,4.49,3.63,3.55,0,*7C
1536962778.22,64808,18.19,74302.0,4.49,3.63,3.63,0,*76
1536962779.4,64809,18.19,74302.5,4.49,3.63,3.63,0,*77
1536962780.6,64810,18.19,74302.5,4.47,3.63,3.63,0,*71
1536962781.86,64811,18.25,74306.0,4.47,3.75,3.75,0,*70
1536962783.11,64812,18.19,74304.8,4.47,3.67,3.67,0,*73
1536962784.31,64813,18.19,74302.0,4.47,3.63,3.55,0,*77
1536962785.51,64814,18.19,74300.3,4.47,3.55,3.63,0,*70
1536962786.71,64815,18.19,74302.5,4.47,3.63,3.55,0,*71
1536962787.9,64816,18.19,74300.8,4.47,3.55,3.55,0,*77
1536962789.12,64817,18.19,74302.3,4.47,3.63,3.67,0,*72
1536962790.35,64818,18.19,74300.3,4.47,3.63,3.67,0,*7D
1536962791.58,64819,18.25,74302.0,4.47,3.67,3.63,0,*7C
1536962792.78,64820,18.19,74296.8,4.47,3.63,3.55,0,*77
1536962794.03,64821,18.19,74298.5,4.47,3.75,3.67,0,*70
1536962795.21,64822,18.19,74298.0,4.45,3.63,3.63,0,*72
1536962796.47,64823,18.19,74300.0,4.47,3.67,3.75,0,*72
1536962797.72,64824,18.19,74298.5,4.47,3.75,3.79,0,*7A
1536962798.98,64825,18.19,74296.5,4.47,3.75,3.75,0,*77
1536962800.24,64826,18.19,74298.0,4.47,3.67,3.67,0,*74
1536962801.5,64827,18.19,74296.5,4.47,3.67,3.67,0,*75
1536962802.76,64828,18.19,74298.0,4.47,3.75,3.75,0,*7A
1536962804.02,64829,18.19,74298.3,4.47,3.79,3.75,0,*77
1536962805.22,64830,18.19,74298.8,4.49,3.81,3.79,0,*7A
1536962806.4,64831,18.19,74294.8,4.49,3.81,3.81,0,*7C
1536962807.63,64832,18.19,74296.5,4.49,3.79,3.79,0,*7F
1536962808.86,64833,18.19,74294.0,4.49,3.79,3.79,0,*7E
1536962810.09,64834,18.19,74292.3,4.49,3.75,3.79,0,*75
1536962811.32,64835,18.19,74292.0,4.51,3.79,3.81,0,*76
1536962812.56,64836,18.19,74294.0,4.49,3.75,3.75,0,*7B
1536962813.8,64837,18.19,74300.5,4.49,3.75,3.75,0,*7A
1536962815.03,64838,18.19,74298.0,4.49,3.67,3.67,0,*75
1536962816.25,64839,18.19,74300.8,4.47,3.55,3.67,0,*7B
1536962817.51,64840,18.19,74288.8,4.47,3.75,3.75,0,*74
1536962818.74,64841,18.19,74292.5,4.49,3.75,3.79,0,*77
1536962819.95,64842,18.19,74294.0,4.51,3.81,3.81,0,*71
1536962821.18,64843,18.19,74298.3,4.49,3.75,3.79,0,*75
1536962822.42,64844,18.19,74294.3,4.49,3.75,3.75,0,*7E
1536962823.65,64845,18.19,74296.0,4.49,3.75,3.75,0,*7F
1536962824.91,64846,18.19,74294.0,4.51,3.79,3.71,0,*7D
1536962826.14,64847,18.19,74296.5,4.49,3.75,3.75,0,*7D
1536962827.38,64848,18.19,74296.0,4.49,3.75,3.67,0,*71
1536962828.64,64849,18.19,74298.0,4.47,3.75,3.75,0,*7D
1536962829.9,64850,18.19,74298.8,4.47,3.67,3.75,0,*76
1536962831.16,64851,18.19,74298.5,4.47,3.67,3.75,0,*77
1536962832.36,64852,18.19,74296.8,4.45,3.67,3.63,0,*71
1536962833.62,64853,18.19,74296.8,4.47,3.75,3.75,0,*76
1536962834.88,64854,18.19,74298.8,4.47,3.75,3.75,0,*71
1536962836.14,64855,18.19,74296.5,4.47,3.67,3.67,0,*70
1536962837.4,64856,18.19,74298.8,4.47,3.75,3.75,0,*73
1536962838.66,64857,18.19,74298.5,4.47,3.67,3.67,0,*72
1536962839.88,64858,18.19,74298.3,4.47,3.63,3.67,0,*79
1536962841.14,64859,18.19,74294.5,4.47,3.75,3.71,0,*78
1536962842.4,64860,18.19,74296.0,4.47,3.67,3.75,0,*75
1536962843.66,64861,18.19,74296.5,4.47,3.75,3.79,0,*7B
1536962844.89,64862,18.19,74296.5,4.45,3.75,3.79,0,*7A
1536962846.07,64863,18.19,74298.3,4.49,3.89,3.89,0,*7B
1536962847.26,64864,18.19,74296.3,4.49,3.93,3.93,0,*7C
1536962848.44,64865,18.19,74294.3,4.49,3.93,3.93,0,*7D
1536962849.65,64866,18.19,74298.8,4.49,3.93,4.01,0,*72
1536962850.88,64867,18.19,74292.0,4.51,4.07,4.05,0,*74
1536962852.08,64868,18.19,74294.5,4.51,4.07,4.15,0,*7A
1536962853.26,64869,18.19,74292.8,4.49,4.07,4.15,0,*72
1536962854.49,64870,18.19,74292.5,4.51,4.05,4.15,0,*71
1536962855.72,64871,18.19,74294.8,4.51,4.05,4.07,0,*73
1536962856.91,64872,18.19,74294.0,4.51,4.15,4.19,0,*7E
1536962858.11,64873,18.19,74292.0,4.51,4.15,4.19,0,*7F
1536962859.29,64874,18.19,74288.8,4.53,4.15,4.19,0,*7A
1536962860.47,64875,18.19,74286.0,4.53,4.15,4.15,0,*77
1536962861.65,64876,18.19,74290.0,4.53,4.07,4.07,0,*74
1536962862.84,64877,18.19,74284.5,4.53,4.07,4.15,0,*76
1536962864.04,64878,18.19,74290.5,4.53,4.07,4.05,0,*78
1536962865.26,64879,18.19,74292.3,4.53,4.05,4.07,0,*79
1536962866.44,64880,18.19,74294.8,4.53,4.07,4.15,0,*7E
1536962867.64,64881,18.19,74290.8,4.55,4.07,4.11,0,*7D
1536962868.84,64882,18.19,74294.5,4.55,4.07,4.11,0,*7E
1536962870.01,64883,18.19,74288.5,4.57,4.27,4.27,0,*7A
1536962871.21,64884,18.19,74286.8,4.55,4.19,4.19,0,*7F
1536962872.41,64885,18.19,74290.8,4.55,4.11,4.19,0,*76
1536962873.58,64886,18.19,74290.0,4.57,4.23,4.23,0,*7F
1536962874.76,64887,18.19,74288.3,4.57,4.15,4.11,0,*7A
1536962875.93,64888,18.19,74294.3,4.57,4.11,4.11,0,*71
1536962877.14,64889,18.19,74296.3,4.57,4.05,4.11,0,*75
1536962878.36,64890,18.19,74288.0,4.57,4.01,4.05,0,*7C
1536962879.59,64891,18.19,74294.8,4.57,4.05,4.05,0,*79
1536962880.82,64892,18.19,74292.5,4.61,4.01,4.05,0,*7B
1536962882.03,64893,18.19,74292.3,4.57,3.89,4.05,0,*78
1536962883.21,64894,18.19,74294.5,4.57,3.89,3.89,0,*7C
1536962884.41,64895,18.19,74294.3,4.57,4.01,3.93,0,*71
1536962885.59,64896,18.19,74294.5,4.57,3.93,3.89,0,*75
1536962886.78,64897,18.19,74294.8,4.57,3.93,3.89,0,*74
1536962887.96,64898,18.19,74296.5,4.57,3.93,3.89,0,*7B
1536962889.14,64899,18.19,74294.3,4.57,3.89,3.89,0,*71
1536962890.37,64900,18.19,74298.3,4.63,3.93,3.97,0,*73
1536962891.58,64901,18.19,74292.8,4.57,3.93,4.05,0,*79
1536962892.78,64902,18.19,74294.8,4.57,4.05,4.11,0,*77
1536962893.95,64903,18.19,74296.0,4.57,4.15,4.15,0,*73
1536962895.13,64904,18.19,74290.8,4.57,4.15,4.15,0,*74
1536962896.31,64905,18.19,74292.8,4.61,4.11,4.15,0,*74
1536962897.49,64906,18.19,74286.8,4.61,4.15,4.15,0,*73
1536962898.67,64907,18.19,74288.5,4.57,4.11,4.15,0,*73
1536962899.85,64908,18.19,74288.8,4.61,4.11,4.11,0,*7D
1536962901.08,64909,18.19,74290.8,4.61,4.01,4.05,0,*78
1536962902.31,64910,18.19,74298.3,4.57,4.05,4.05,0,*71
1536962903.54,64911,18.19,74292.5,4.61,4.01,4.05,0,*71
1536962904.76,64912,18.19,74292.8,4.61,4.01,4.01,0,*76
1536962905.99,64913,18.19,74290.8,4.61,4.01,4.01,0,*77
1536962907.21,64914,18.19,74290.8,4.61,4.01,4.01,0,*70
1536962908.4,64915,18.19,74294.5,4.61,3.89,3.89,0,*71
1536962909.61,64916,18.19,74294.5,4.63,3.93,3.93,0,*70
1536962910.82,64917,18.19,74296.5,4.63,3.89,3.93,0,*7A
1536962912.0,64918,18.19,74294.8,4.61,3.85,3.93,0,*7B
1536962913.21,64919,18.19,74292.5,4.63,3.89,3.93,0,*74
1536962914.42,64920,18.19,74292.0,4.63,3.81,3.93,0,*76
1536962915.63,64921,18.19,74290.8,4.57,3.79,3.93,0,*77
1536962916.81,64922,18.19,74294.0,4.61,3.85,3.89,0,*79
1536962918.01,64923,18.19,74298.5,4.61,3.79,3.85,0,*77
1536962919.22,64924,18.19,74294.3,4.61,3.85,3.79,0,*70
1536962920.39,64925,18.19,74292.0,4.57,3.85,3.85,0,*77
1536962921.56,64926,18.19,74294.8,4.57,3.85,3.85,0,*74
1536962922.74,64927,18.19,74292.8,4.61,3.85,3.85,0,*70
1536962923.91,64928,18.19,74292.5,4.57,3.89,3.85,0,*76
1536962925.11,64929,18.19,74292.8,4.57,3.85,3.79,0,*78
1536962926.32,64930,18.19,74292.3,4.61,3.85,3.79,0,*75
1536962927.55,64931,18.19,74296.0,4.57,3.75,3.75,0,*72